Wind_Speed
20 20 19 18 16 13 9 9 9 9 9 8 9 11 13 14 15 16 16 16 17 16 14 13 12 10 8 7 6 5 5 4 3 3 3 4 6 7 9 11 12 14 14 15 16 16 17 18 18 17 16 14 12 10 9 7 6 7 9 11 11 12 12 8 4 3 3 4 5
19 19 19 17 13 9 7 8 8 9 9 9 11 13 15 16 17 17 17 16 16 15 14 12 10 8 6 5 4 3 2 1 2 3 4 6 7 8 10 11 12 13 13 13 13 13 13 13 13 12 10 8 7 5 4 4 4 4 4 4 5 5 5 5 6 6 5 4 4
17 17 17 16 12 9 9 9 9 10 11 12 14 15 17 17 18 18 17 16 14 13 12 11 9 7 5 4 3 2 1 1 2 3 4 5 6 8 9 10 11 11 10 10 9 9 9 9 9 8 6 5 5 5 5 5 6 7 7 8 8 9 9 9 9 9 9 10 9
14 14 15 13 12 11 11 12 13 14 15 15 16 17 18 18 18 18 17 15 13 12 11 10 8 7 5 5 4 4 4 4 4 4 5 6 6 7 8 8 8 7 6 5 4 3 3 4 4 4 4 5 5 5 6 6 7 7 8 9 10 10 10 10 10 10 11 12 12
10 13 15 14 13 13 13 14 16 17 17 17 18 18 18 18 17 17 16 15 14 12 11 10 9 8 7 7 7 7 7 6 6 6 6 6 7 6 6 5 5 5 5 5 4 4 4 4 5 6 8 8 8 8 8 8 8 9 10 10 11 12 12 12 12 12 12 12 11
10 14 16 15 15 14 15 17 18 18 17 17 17 18 17 16 16 16 15 15 14 13 11 10 10 10 9 8 8 8 8 7 7 7 7 7 6 6 6 6 7 9 9 9 9 10 10 10 10 11 11 11 11 10 10 9 8 9 9 10 10 11 11 11 12 11 11 11 10
16 18 18 17 17 18 18 19 19 19 19 18 18 18 17 16 15 15 14 14 14 14 13 12 12 11 11 10 10 10 9 9 9 8 8 8 7 7 9 10 11 11 11 11 12 11 11 11 11 10 10 10 10 9 9 8 8 8 9 9 9 9 9 9 9 9 9 9 9
20 21 21 21 21 21 21 21 21 21 21 20 20 19 17 16 15 15 15 16 17 16 16 15 15 14 13 13 13 12 11 11 10 10 9 9 9 10 10 11 11 11 11 10 10 10 10 9 9 9 9 9 8 8 8 8 7 8 8 9 9 8 8 8 8 8 7 7 7
23 23 23 24 23 24 24 23 23 23 23 22 21 19 18 17 17 17 18 19 19 19 18 18 17 16 15 15 14 13 13 12 11 11 10 10 10 10 9 9 9 8 8 8 8 8 8 7 7 7 7 7 7 7 7 7 7 8 8 8 8 8 8 8 8 8 8 7 7
26 25 25 25 25 24 24 24 24 23 22 21 20 19 19 19 19 20 21 21 21 21 20 19 17 16 16 15 15 14 13 12 11 11 10 9 8 8 7 7 6 5 5 5 5 5 5 5 6 5 5 5 6 6 6 6 7 7 8 8 8 8 8 8 8 9 9 8 8
27 26 26 26 25 24 24 24 24 23 22 21 20 20 20 21 21 22 22 22 21 20 19 17 16 16 15 15 14 13 12 11 9 8 7 7 6 6 5 5 4 4 4 5 5 4 5 5 5 6 6 5 6 6 6 6 7 7 7 7 7 7 7 8 8 8 8 8 7
26 26 25 25 25 25 24 25 25 24 24 24 23 22 22 22 22 22 22 21 20 19 18 16 15 14 14 13 12 11 9 8 7 7 6 6 5 5 4 4 4 4 4 5 5 5 5 6 6 6 6 6 6 6 6 7 7 6 6 5 5 6 6 7 7 7 7 7 6
26 25 25 25 25 25 26 26 26 26 26 25 24 23 22 21 21 21 20 19 19 18 17 15 14 13 12 11 10 9 8 8 7 7 6 6 5 4 3 3 3 4 4 5 5 6 6 6 6 6 6 6 6 6 6 6 6 5 5 4 4 4 5 5 6 6 6 6 5
26 25 25 24 25 26 26 26 26 25 24 23 22 21 21 21 20 19 19 18 18 17 16 14 13 12 11 10 9 8 8 8 7 7 6 5 5 4 5 5 5 5 5 6 6 6 6 6 6 6 5 5 5 5 5 5 5 5 4 4 4 5 5 5 5 5 5 6 6
25 25 24 24 24 25 25 25 24 22 21 21 20 20 21 20 19 18 17 17 16 15 14 13 12 11 10 9 8 8 8 8 7 7 6 6 6 6 7 7 6 6 6 6 6 6 6 6 6 6 6 6 5 5 5 5 5 5 4 5 5 5 6 6 6 6 6 6 6
25 24 24 24 24 24 24 23 21 20 19 20 20 21 21 20 19 17 16 16 15 14 13 13 12 11 11 10 10 9 9 8 8 7 7 8 8 8 7 7 7 6 6 5 5 5 5 5 5 6 6 6 6 6 6 6 5 5 5 5 6 6 7 7 7 7 7 7 7
26 25 25 24 24 24 23 22 21 20 20 20 21 21 21 20 18 17 16 16 15 14 14 14 13 13 12 12 11 10 9 9 9 8 8 8 8 8 7 7 6 5 5 4 4 4 4 4 4 5 5 6 6 6 6 6 6 6 6 6 7 7 7 8 8 8 8 8 8
26 26 26 25 25 25 24 24 22 22 21 22 21 21 20 19 18 18 17 16 15 15 15 15 14 14 13 12 11 10 9 9 9 9 9 9 8 8 7 6 6 5 5 4 4 4 4 4 4 4 4 5 6 6 6 6 6 7 7 7 7 7 7 7 8 8 8 8 9
27 26 26 25 25 25 25 25 24 23 22 22 21 21 20 19 18 18 17 16 16 15 15 15 14 14 12 11 11 10 10 10 10 10 9 9 8 8 7 7 6 6 6 5 5 5 5 5 5 5 5 6 6 6 7 7 7 7 7 8 8 8 8 8 8 8 9 9 10
27 26 25 25 26 26 25 25 24 23 22 21 21 21 20 19 18 18 17 17 16 15 15 15 15 14 12 11 11 11 11 11 11 10 10 9 9 8 8 7 7 7 7 7 7 6 6 6 6 6 7 7 7 8 8 8 7 8 8 8 9 9 10 10 10 10 11 11 11
27 26 25 25 25 26 25 24 23 22 22 21 21 21 20 19 19 18 18 17 16 16 16 16 15 14 13 12 12 12 12 12 11 11 10 9 9 8 8 8 8 8 8 8 7 7 7 7 7 7 8 8 8 9 9 9 8 8 8 9 9 10 10 11 11 12 12 13 13
27 26 25 24 25 25 25 23 22 22 22 22 22 21 21 20 19 19 18 17 17 17 17 16 15 14 14 14 14 13 13 12 12 11 10 10 9 9 8 8 8 8 9 8 8 7 7 7 8 8 9 9 9 9 9 9 10 10 10 9 9 9 10 10 11 11 12 13 14
27 26 25 24 25 25 25 24 23 23 23 22 22 21 21 20 19 19 18 18 18 17 17 16 15 15 14 14 14 14 14 13 12 12 11 10 10 9 9 9 10 10 10 10 9 8 8 9 9 10 11 11 11 10 10 10 11 11 11 11 11 11 11 11 11 11 12 12 13
27 26 25 25 26 26 25 24 24 23 23 22 22 21 20 20 19 19 18 18 17 17 16 15 15 15 15 14 15 14 14 14 13 12 12 11 10 10 10 10 11 11 11 11 10 9 9 9 10 11 12 13 13 13 12 12 12 12 12 13 13 13 13 12 12 12 12 12 13
27 26 26 26 26 26 25 25 24 24 23 22 21 20 20 19 19 18 18 17 17 16 15 15 15 15 15 15 15 15 14 14 13 13 12 11 10 9 9 9 10 11 11 11 10 9 9 9 10 11 12 13 14 14 15 14 14 14 14 14 14 14 14 14 13 12 12 12 12
27 27 27 27 26 26 25 24 24 23 22 21 20 20 19 19 18 18 17 17 16 16 15 15 15 14 14 14 14 14 14 14 13 13 13 12 11 10 8 8 8 9 10 10 10 9 9 9 9 10 11 13 14 15 16 16 16 16 15 15 15 15 15 15 15 14 13 13 12
26 26 26 26 25 25 24 23 22 21 21 20 20 19 19 18 17 17 17 16 16 15 15 15 14 14 14 13 13 13 13 13 13 13 13 12 12 11 10 9 9 8 8 9 10 10 10 10 10 10 11 12 13 15 16 17 17 17 17 17 17 16 16 16 16 16 16 15 14
25 25 25 24 24 23 22 21 21 20 20 19 19 18 18 18 17 17 16 16 15 15 15 15 14 13 13 13 12 12 12 13 13 13 13 12 12 11 11 11 10 9 9 9 10 11 11 10 10 11 11 12 13 14 15 17 18 18 19 19 18 17 17 17 17 17 17 17 16
24 24 23 23 23 22 21 20 19 18 18 17 17 17 17 17 18 17 17 16 16 16 15 14 13 13 13 12 12 13 13 13 13 13 13 12 12 12 12 12 11 10 10 10 11 11 11 11 11 11 12 12 13 14 15 16 18 19 19 19 18 18 17 17 17 17 17 17 17
23 23 23 23 22 21 20 19 18 17 16 16 16 16 17 18 18 18 18 18 17 16 15 14 13 13 13 13 13 13 14 14 14 13 13 13 13 12 12 12 12 11 11 11 12 12 12 11 12 12 12 12 13 14 15 16 18 19 19 19 18 17 17 17 17 17 17 17 17
23 23 23 23 22 21 20 19 17 17 16 16 16 17 17 18 18 19 18 18 17 16 15 14 14 14 13 13 14 14 15 14 14 14 13 13 13 13 13 13 13 13 12 12 13 13 13 12 12 12 12 12 12 13 15 16 18 18 18 18 17 17 17 17 17 17 17 17 18
23 23 23 23 22 22 21 20 19 18 17 17 17 18 18 18 18 18 17 17 17 16 16 16 16 15 15 15 15 15 15 15 15 14 14 14 14 14 14 14 14 14 14 14 13 13 13 13 12 12 12 12 12 13 15 17 17 17 17 17 16 16 17 17 17 17 17 17 17
23 23 22 22 22 21 21 20 20 19 19 19 18 18 18 17 17 17 16 17 17 17 17 17 16 16 16 15 16 16 16 16 15 15 14 14 14 14 15 15 15 16 16 14 14 14 13 13 12 12 12 11 12 13 15 17 17 17 16 16 16 16 16 17 17 17 17 16 16
22 22 22 21 21 21 21 21 20 20 20 20 19 19 18 17 17 17 17 17 17 17 17 16 16 16 15 15 16 16 16 16 15 15 15 14 15 15 15 16 16 16 16 15 14 14 13 13 12 12 11 11 12 13 15 16 17 17 16 16 16 16 16 16 16 16 16 16 16
22 22 21 21 21 20 21 21 21 21 21 20 20 19 19 18 18 18 18 17 17 16 16 16 15 15 15 15 15 16 16 16 15 15 15 15 15 15 16 16 16 16 15 15 14 14 13 13 12 12 11 11 11 13 14 16 16 17 17 17 17 17 17 16 16 15 15 15 15
22 21 21 20 20 20 20 20 20 21 21 21 20 20 19 18 18 18 17 17 17 16 16 16 15 15 15 16 16 16 15 15 15 14 15 15 16 16 16 16 16 16 15 14 14 14 13 12 12 11 11 10 11 12 13 14 15 16 16 17 17 17 17 16 16 15 15 15 15
21 20 20 20 19 19 19 19 20 20 21 20 20 19 19 18 18 18 17 17 17 17 16 16 16 16 16 16 15 15 14 14 14 15 15 16 16 16 17 16 16 15 14 14 14 13 13 12 12 11 11 11 11 11 12 13 14 14 15 15 16 16 16 16 16 15 15 15 15
19 19 19 19 19 19 18 19 19 20 20 19 19 18 18 18 18 18 17 17 17 17 17 16 16 16 16 15 14 13 13 13 14 15 15 16 16 16 16 16 16 15 14 13 13 13 12 12 11 11 11 11 11 11 11 12 13 14 14 15 15 14 15 15 15 15 15 15 15
19 18 18 18 18 18 18 18 19 19 19 18 18 18 18 18 17 17 17 16 16 16 16 16 16 15 15 14 13 13 13 13 14 15 15 15 15 15 15 15 15 14 13 13 13 13 13 12 11 11 12 12 11 11 11 12 13 14 14 15 15 15 15 15 15 15 15 15 15
18 17 17 17 17 17 17 17 18 18 17 17 17 17 17 17 17 16 16 16 15 15 15 15 15 14 14 13 13 13 14 14 15 15 14 14 14 14 15 15 15 14 14 13 13 14 14 13 13 12 12 13 12 11 11 12 14 15 15 15 15 15 15 16 16 15 15 15 15
17 16 16 16 16 17 17 17 17 17 16 16 17 17 16 16 16 16 16 15 15 15 15 14 14 14 14 14 14 15 15 16 15 15 14 14 14 14 15 15 15 15 14 14 14 14 15 15 14 14 14 14 13 13 12 13 14 15 14 14 14 14 15 15 15 15 15 16 16
Wind_Direction
216 215 212 212 212 212 212 217 220 222 221 211 193 187 183 171 155 147 144 146 146 146 147 149 151 154 158 164 174 185 196 208 224 250 276 293 303 310 314 314 314 311 308 305 301 298 296 295 295 295 295 294 289 283 276 268 261 256 252 247 245 248 251 251 237 219 214 217 220
216 217 215 213 210 199 186 191 199 200 195 187 171 162 158 154 147 142 140 140 140 141 141 141 141 142 144 152 163 181 206 247 296 320 328 330 332 332 331 328 325 321 315 310 304 299 296 294 293 290 286 281 267 250 229 200 178 170 169 172 173 183 176 141 120 114 115 118 124
216 214 211 207 195 171 157 164 165 166 166 164 156 147 140 138 138 137 135 134 135 136 136 133 132 132 132 135 143 146 128 53 25 13 8 3 358 353 348 343 338 332 325 318 309 298 290 286 281 272 256 237 226 206 176 156 149 142 131 121 119 118 116 110 105 105 105 102 98
224 210 196 184 172 162 157 155 152 151 151 150 146 138 130 128 130 131 131 130 129 128 126 126 124 123 122 120 117 109 97 85 71 56 42 31 24 16 8 358 353 350 346 338 323 298 273 264 250 220 187 167 153 138 127 120 122 122 115 106 100 96 93 90 89 92 96 97 96
211 191 178 169 168 164 157 152 148 146 144 144 140 133 126 121 122 122 123 122 119 118 117 117 116 115 114 113 111 107 102 95 82 67 54 47 42 32 23 22 32 50 65 71 83 97 108 112 113 111 110 109 102 95 89 86 89 91 89 85 80 76 75 74 74 76 81 85 87
160 161 162 161 161 158 152 145 143 142 142 141 135 128 122 118 116 116 116 115 114 113 112 112 113 114 115 116 115 111 106 97 83 69 58 53 52 58 69 78 84 89 93 94 96 97 97 95 92 87 83 81 79 77 74 72 72 73 71 67 63 61 58 56 56 57 59 61 63
130 135 140 144 146 145 142 139 137 136 135 132 127 122 119 117 115 114 114 114 113 113 113 114 115 116 118 118 114 107 98 88 78 67 60 62 72 85 95 98 98 97 96 96 96 94 93 91 88 84 80 77 76 74 72 69 67 66 65 63 60 56 52 48 45 44 44 44 44
127 130 132 134 136 134 133 132 132 129 126 121 118 117 117 116 116 117 117 116 114 113 113 113 113 114 113 111 104 95 86 78 73 70 72 80 90 97 99 98 96 93 91 90 88 88 87 88 86 83 80 77 74 72 67 63 60 60 59 59 59 57 54 50 46 43 41 38 37
122 124 127 129 130 128 127 126 126 124 120 116 114 115 116 117 119 120 118 115 112 112 111 110 110 110 107 101 93 86 80 77 78 82 89 95 97 96 92 88 83 80 78 77 76 76 75 75 73 72 69 66 63 60 56 51 49 48 48 48 46 45 43 42 40 37 34 30 29
115 117 120 122 124 124 123 121 120 119 119 117 114 114 117 120 121 118 115 113 112 111 109 108 108 106 100 94 89 86 86 87 91 95 98 97 92 85 76 68 60 54 49 46 47 49 49 49 48 47 44 42 40 39 36 34 35 38 38 36 33 31 29 28 28 27 25 22 20
111 112 113 115 118 120 119 115 113 114 116 117 116 116 117 118 116 114 113 113 112 110 107 107 105 100 95 91 90 92 95 98 99 99 94 85 74 63 51 38 24 15 9 4 3 7 14 19 21 22 21 20 20 20 22 23 28 32 34 29 23 19 18 17 18 19 19 17 13
106 107 109 111 113 114 113 111 109 110 112 114 115 114 113 112 111 111 112 113 110 107 105 104 100 97 94 95 97 100 102 101 98 91 82 71 60 48 35 20 9 6 5 5 4 9 16 20 20 20 20 19 18 18 19 21 25 28 30 25 15 8 4 4 6 7 7 6 1
102 102 103 105 107 108 107 107 107 107 108 109 111 110 108 107 108 109 109 108 105 102 101 100 99 98 99 100 103 103 101 96 89 81 74 67 60 53 47 40 35 33 34 31 29 29 30 28 25 20 17 17 17 15 14 14 15 15 12 3 350 343 341 343 346 346 344 343 338
99 98 98 99 101 102 103 103 103 103 103 104 105 104 104 103 104 105 104 102 99 99 100 101 102 102 101 101 100 97 93 87 80 75 72 71 68 66 64 60 56 52 47 42 36 31 28 23 18 11 7 3 3 3 2 2 1 358 352 341 330 325 325 326 326 325 321 319 316
96 95 95 96 97 98 99 99 99 98 97 97 98 99 100 99 99 100 99 98 98 100 102 103 101 99 96 92 88 84 81 80 79 78 78 77 74 70 68 65 59 53 46 40 32 26 21 15 11 5 1 355 352 349 347 347 346 344 338 333 328 326 324 323 321 319 316 311 308
94 94 94 95 94 95 95 94 93 92 91 91 94 96 97 96 96 96 97 96 98 99 99 97 94 91 87 84 80 78 79 80 82 82 79 75 71 68 65 62 56 49 43 37 33 28 24 19 14 10 4 358 352 348 344 341 338 335 330 326 324 323 323 322 320 318 316 312 309
91 91 91 92 91 91 90 89 88 86 86 88 91 93 94 94 95 94 94 94 95 95 93 91 89 86 84 82 81 81 82 82 81 77 73 69 65 61 58 55 50 45 40 37 36 35 32 29 24 18 10 3 357 353 350 347 343 338 332 328 325 322 322 321 320 319 318 315 312
87 87 87 86 86 85 86 85 84 84 84 86 89 90 92 93 93 93 92 93 93 92 91 89 87 86 85 84 84 84 82 79 75 71 67 64 60 56 52 48 42 35 30 26 24 23 22 21 18 13 7 0 356 355 355 353 351 348 343 338 333 330 327 326 326 325 325 324 321
83 82 82 81 81 82 82 83 82 83 83 85 87 89 90 91 92 92 92 91 90 90 89 88 86 85 85 85 84 81 78 74 70 67 64 60 56 52 47 41 34 26 19 12 5 0 358 358 358 355 351 347 345 346 347 348 348 347 344 341 338 334 332 330 330 330 329 329 327
81 80 79 80 81 82 82 82 83 83 84 86 87 89 89 90 91 91 89 87 87 87 86 85 83 82 81 81 79 76 73 69 67 64 61 57 53 49 44 38 31 25 16 5 355 347 343 342 342 340 338 335 334 333 333 334 334 334 332 331 329 328 326 325 325 325 325 325 324
81 80 80 81 83 85 85 85 85 85 86 87 87 87 88 88 87 86 85 84 84 83 82 80 79 77 76 74 71 69 67 65 62 60 57 54 51 46 41 37 31 24 16 5 354 345 339 336 334 332 331 329 328 325 322 320 318 317 316 316 316 316 316 317 317 317 316 316 317
82 82 83 83 86 88 88 88 87 87 86 85 85 85 84 83 82 82 81 81 80 78 77 75 74 71 69 66 64 62 61 59 57 54 52 48 44 40 35 30 26 20 14 6 358 351 346 342 338 335 333 331 328 324 319 314 310 308 306 304 304 304 305 306 307 307 308 308 309
81 83 83 84 85 86 87 87 85 84 82 81 80 80 80 79 78 78 77 76 75 73 72 70 68 65 62 59 57 55 53 51 48 46 43 39 34 27 21 16 12 9 5 1 359 358 356 351 345 340 336 334 332 329 324 320 315 310 306 302 300 298 297 296 297 298 300 302 304
80 81 81 81 82 82 82 81 80 78 77 76 76 76 76 75 74 74 73 71 70 69 67 64 62 59 56 53 50 47 44 41 39 36 34 31 26 19 11 4 358 354 352 352 355 357 354 349 345 340 337 334 333 332 330 328 324 319 313 308 304 300 297 295 293 293 295 298 302
78 78 78 77 77 77 77 75 74 73 72 72 72 72 72 71 70 70 68 67 65 63 61 59 56 53 50 47 43 40 36 32 29 26 24 22 20 15 7 356 347 341 340 342 347 347 343 340 341 339 336 333 332 331 331 330 329 326 322 317 311 307 303 298 295 293 294 297 301
75 74 73 73 73 73 72 71 70 69 69 68 68 67 67 67 67 66 65 63 61 58 56 54 51 48 45 41 38 33 29 24 20 17 14 12 10 6 0 351 340 332 331 334 335 333 331 332 336 337 335 333 331 330 330 330 330 329 327 324 319 314 310 305 300 297 295 296 299
73 71 71 71 71 69 68 68 67 66 65 64 64 63 63 63 63 63 61 59 56 54 51 49 46 43 40 37 32 27 22 17 13 9 6 3 359 356 352 347 340 333 331 332 329 325 324 327 330 333 334 332 330 328 328 328 329 329 329 327 324 320 316 311 307 304 301 300 301
71 70 70 70 68 67 66 66 64 63 61 60 60 60 60 60 59 58 57 54 51 48 46 44 41 38 35 32 27 21 15 10 6 2 359 355 352 349 346 344 341 339 337 336 332 328 326 327 328 331 332 332 329 327 326 326 328 329 329 328 327 324 321 317 314 312 311 310 308
69 70 69 68 67 65 64 63 62 60 59 59 57 57 56 55 54 52 51 48 46 43 39 36 34 32 29 25 19 14 9 5 1 358 354 351 348 346 345 344 343 343 343 341 337 334 331 330 329 330 331 331 329 326 325 326 327 329 329 329 328 327 325 324 322 321 320 319 317
68 67 67 65 64 63 61 60 59 59 58 57 55 53 51 49 47 45 44 42 40 37 34 31 29 27 24 18 13 9 5 2 359 356 353 351 349 348 348 348 348 349 349 346 341 338 336 333 332 331 332 332 329 326 326 327 329 330 331 331 331 330 330 329 329 328 327 326 324
65 64 63 62 60 58 56 56 55 55 54 53 52 50 47 45 42 39 37 36 34 32 30 28 26 23 20 15 10 6 3 1 359 358 356 354 352 352 352 353 353 354 354 350 343 339 338 337 335 335 335 335 331 328 328 330 331 333 334 334 334 335 335 334 333 332 331 330 328
62 61 59 57 55 53 52 51 51 50 50 50 48 47 44 42 39 36 33 30 28 25 24 22 21 19 15 11 7 3 1 359 359 359 358 357 354 354 354 356 356 356 355 350 343 341 340 340 338 338 338 339 335 332 332 334 335 336 337 336 337 337 337 337 336 335 334 334 333
57 56 55 53 51 49 47 47 46 46 47 46 45 43 41 39 36 32 28 25 22 19 18 17 16 13 10 6 2 359 358 358 359 359 359 358 356 355 354 355 356 356 354 349 344 342 342 342 341 340 341 343 339 336 336 337 339 340 339 338 337 337 337 336 336 335 335 335 335
50 50 49 47 45 43 42 41 41 41 41 41 40 38 36 33 30 26 22 19 16 15 14 14 12 9 6 2 359 357 357 358 359 0 1 359 357 355 355 355 355 355 353 349 346 344 344 343 342 343 344 344 341 340 340 342 343 343 342 340 338 337 336 336 335 334 334 334 335
44 44 43 42 40 37 36 35 34 35 35 34 33 32 30 28 25 21 18 14 12 11 11 11 9 6 4 1 359 358 358 359 1 2 1 359 357 356 355 355 355 356 356 353 348 346 346 345 345 345 345 343 343 344 346 348 348 347 345 342 341 340 340 339 337 335 333 333 333
40 39 39 38 36 33 31 30 29 29 29 28 27 25 24 22 20 18 14 10 9 9 9 8 7 5 3 2 1 2 3 3 3 2 1 358 357 356 356 357 358 359 0 358 352 348 348 347 347 347 346 344 346 350 352 352 350 349 347 346 345 345 345 344 342 339 337 335 333
37 37 36 36 34 31 28 26 26 25 25 24 22 21 19 17 16 14 12 9 8 8 8 7 6 5 4 4 5 7 8 6 4 2 359 358 358 359 0 1 2 4 5 3 355 351 350 349 349 348 347 346 350 354 354 353 351 350 348 347 346 347 347 347 345 342 339 337 334
34 34 34 33 32 30 27 24 23 23 22 20 19 17 16 14 13 12 11 10 10 9 8 7 7 7 7 9 11 13 12 9 5 2 360 0 2 4 5 6 7 8 8 6 359 354 352 352 350 348 348 351 354 356 356 355 353 350 348 346 346 347 348 347 345 342 339 336 333
32 32 32 32 30 28 25 24 22 21 19 18 17 16 14 13 12 13 13 13 13 12 11 10 10 12 14 16 18 17 14 10 6 3 3 5 8 10 11 10 11 11 9 7 1 356 354 354 353 351 350 350 352 357 359 358 353 349 346 345 344 345 346 345 343 339 336 334 331
30 30 30 30 28 26 24 23 21 20 18 17 17 16 15 14 14 15 16 17 17 16 15 15 17 19 22 23 22 19 14 11 8 8 9 11 14 15 15 14 13 12 10 7 2 358 356 357 356 353 350 347 350 356 1 359 353 348 344 343 342 342 342 341 338 335 331 329 326
29 29 29 29 27 25 23 22 20 19 18 18 19 18 17 16 18 20 21 21 22 21 21 22 24 26 27 26 22 18 15 13 13 15 17 18 19 18 17 16 14 12 11 8 3 359 357 357 356 354 350 347 351 357 2 0 352 344 338 335 335 335 334 332 329 325 323 321 321
Height
736 736 737 739 740 742 743 743 743 744 745 746 747 748 750 750 750 750 750 751 752 753 753 754 756 757 758 759 760 761 761 762 763 763 763 764 764 764 764 764 763 763 763 763 763 764 764 763 763 763 763 763 763 763 763 762 762 761 761 760 760 759 759 759 758 758 757 757 757
736 737 738 739 741 742 743 743 744 745 745 746 747 748 749 749 749 749 750 751 751 752 753 754 756 757 758 759 760 761 761 762 762 763 763 763 763 763 762 762 761 761 762 762 762 763 763 763 763 763 763 763 763 762 762 761 761 760 760 759 758 758 758 758 758 757 757 756 757
735 737 738 740 742 743 742 743 744 745 746 747 748 749 749 749 748 748 749 751 752 752 753 754 756 757 758 759 760 761 761 761 761 761 761 761 761 761 760 760 760 760 761 761 762 762 762 762 762 762 762 762 762 761 761 760 760 759 759 758 758 758 758 758 757 757 756 756 756
735 737 739 741 742 742 743 743 744 746 746 747 748 749 749 749 748 749 750 751 752 753 753 754 756 757 758 759 759 760 760 761 761 760 760 759 759 759 759 759 759 760 761 761 761 762 762 762 762 762 761 761 761 761 761 760 760 759 759 758 758 758 757 757 757 756 756 755 755
735 737 739 740 741 742 743 743 745 746 747 747 748 749 749 749 749 750 750 751 752 753 754 755 756 757 758 758 759 759 760 760 760 759 758 758 758 758 758 759 760 761 761 762 762 762 762 762 762 762 762 762 761 761 761 761 760 760 759 759 758 758 758 758 757 757 756 756 755
736 737 738 739 741 742 743 744 744 746 747 748 748 749 749 750 750 750 751 752 752 753 754 755 756 757 758 758 759 759 759 759 758 758 757 757 757 758 759 760 761 761 762 762 763 763 763 763 763 763 763 762 762 762 762 762 761 761 760 760 759 759 758 758 758 758 757 757 756
736 737 738 740 741 742 743 744 745 745 746 747 748 748 750 750 750 751 752 753 753 754 754 755 756 758 758 759 759 759 758 757 757 756 756 757 758 759 760 761 762 762 763 763 763 763 763 763 763 763 763 763 763 763 763 762 762 761 761 760 760 760 759 759 759 759 758 758 758
737 738 739 740 741 742 743 744 745 746 746 747 748 749 750 750 751 752 753 753 754 754 755 756 757 758 759 759 758 757 756 756 756 756 757 758 760 761 762 763 763 763 764 764 764 764 763 763 763 763 763 763 763 763 763 762 762 761 761 760 760 760 760 760 759 759 759 759 759
738 739 740 741 742 743 743 744 745 746 746 747 748 750 751 751 752 753 753 754 754 755 756 757 758 759 758 757 756 755 755 756 757 758 760 761 762 763 763 763 764 764 765 765 765 764 764 764 764 764 764 764 763 763 763 763 762 762 761 760 760 760 760 760 760 759 759 759 759
740 741 742 742 743 743 745 745 746 745 745 747 749 751 752 753 753 754 754 754 755 756 757 758 758 758 757 756 755 755 756 758 760 761 763 763 763 763 763 764 764 765 765 765 765 765 765 764 764 764 764 764 764 763 763 763 762 762 761 761 760 760 760 759 759 759 759 759 759
741 742 743 743 744 745 746 746 746 746 746 748 750 752 753 754 754 754 754 755 755 756 756 757 756 756 755 756 756 758 759 761 762 763 763 763 763 763 763 764 765 765 765 765 765 765 765 765 765 765 765 764 764 764 763 763 763 762 761 761 760 760 759 759 759 759 759 759 759
742 743 744 744 745 746 746 746 747 748 748 748 751 753 755 755 754 754 755 755 755 755 755 755 756 756 757 758 759 761 762 763 763 763 763 762 763 763 764 765 765 765 765 765 765 765 765 765 765 765 765 765 764 764 764 763 763 762 762 761 760 760 759 759 759 758 758 758 758
743 744 745 746 747 747 747 747 748 749 749 750 752 754 755 755 755 755 755 754 754 754 755 756 757 758 759 761 762 763 763 763 763 762 762 762 763 764 764 765 765 765 765 765 765 765 765 765 765 765 765 765 765 764 764 763 763 762 762 761 761 760 760 759 759 758 758 758 758
745 746 747 748 747 747 748 749 750 751 751 753 754 755 754 754 754 754 754 754 754 755 756 758 759 760 762 763 763 763 763 762 762 762 763 764 764 765 764 765 765 765 766 766 766 766 766 766 766 766 765 765 765 764 764 763 763 763 762 762 761 761 760 759 759 758 758 758 758
746 747 748 748 748 748 749 750 752 753 753 754 754 754 753 753 754 754 755 755 756 758 759 760 761 762 763 763 763 763 762 762 763 763 764 765 765 765 764 765 765 766 766 766 766 766 766 766 766 766 766 765 765 765 764 764 763 763 762 762 762 761 760 760 759 759 758 758 758
748 749 749 750 750 751 751 752 753 754 754 754 753 753 753 753 754 755 756 758 758 760 760 761 762 762 763 763 763 763 763 764 764 765 765 765 765 765 765 765 766 766 767 767 767 767 767 766 766 766 766 766 765 765 765 764 763 763 763 762 762 761 761 760 760 759 759 758 758
749 751 751 751 752 752 753 753 754 755 755 754 754 753 754 755 756 757 758 760 760 761 762 762 762 762 762 763 763 764 765 765 765 765 765 765 765 765 766 766 767 767 767 767 767 767 767 767 766 766 766 766 766 765 765 764 763 763 763 762 762 761 761 760 760 759 759 758 758
752 752 753 753 753 754 754 754 755 756 756 755 755 755 756 757 758 759 760 761 762 762 762 762 762 762 763 764 765 766 766 766 766 766 766 766 766 766 767 767 768 768 768 768 768 768 767 767 766 766 766 766 765 765 765 764 763 763 763 762 762 761 761 760 760 759 759 758 758
753 754 754 755 755 755 755 756 757 757 758 758 758 758 758 759 760 761 762 763 763 762 762 762 763 763 765 766 767 767 767 766 766 766 766 766 767 767 768 768 768 768 768 768 768 768 768 767 767 766 766 766 765 765 764 764 763 763 763 762 762 761 761 760 760 759 759 758 758
755 756 757 757 757 757 758 758 759 760 760 760 760 760 760 761 762 763 763 763 763 763 763 763 764 765 766 767 768 767 767 767 767 767 767 767 767 768 768 768 768 769 769 769 769 768 768 768 767 766 766 766 765 765 764 764 763 763 763 762 762 761 761 760 760 759 758 758 758
756 757 759 759 759 759 760 761 762 763 763 762 762 762 763 763 764 764 764 764 764 763 764 764 766 767 768 768 768 768 767 767 767 767 768 768 768 768 769 769 769 769 769 769 769 769 768 768 767 767 766 766 765 765 764 764 763 763 763 762 762 761 761 760 759 759 758 758 758
758 759 761 762 762 762 763 763 764 764 764 764 763 763 764 764 765 765 765 764 764 764 765 767 768 768 769 769 768 768 768 768 768 768 768 768 769 769 769 769 769 769 769 769 769 769 769 768 768 767 766 766 765 765 765 764 763 763 763 762 761 761 760 759 759 758 758 758 757
760 762 764 764 764 763 764 765 765 765 765 764 765 765 765 766 766 766 765 765 765 766 767 768 769 769 769 769 769 768 768 768 768 769 769 769 769 769 769 769 769 769 770 770 770 769 769 768 768 767 766 766 765 765 765 764 763 763 762 762 761 760 759 759 758 758 758 757 757
763 765 766 765 764 764 764 765 765 765 765 765 766 766 766 766 766 766 766 767 767 768 769 769 770 770 769 769 769 768 768 769 769 769 769 769 770 770 770 770 770 770 770 770 770 769 769 768 768 767 766 766 765 765 764 764 763 763 762 761 760 759 759 758 758 757 757 756 756
766 766 766 765 765 765 765 765 766 766 767 767 767 767 767 767 767 768 768 768 769 769 770 770 770 770 769 769 769 769 769 770 770 770 770 770 770 770 770 770 770 771 770 770 770 770 769 768 768 767 767 766 765 764 764 763 763 763 762 761 760 759 758 757 757 757 756 756 755
767 767 766 766 766 766 766 767 768 768 768 768 768 768 768 768 769 769 769 770 770 770 770 770 770 770 769 769 770 770 770 771 771 770 770 770 771 771 771 771 771 771 771 770 770 769 769 768 768 767 766 766 765 764 763 763 763 762 761 760 760 759 758 757 756 756 755 755 754
768 767 767 767 767 768 768 769 769 770 770 770 770 770 770 770 770 770 770 771 771 771 771 770 770 770 770 770 771 771 771 771 771 771 771 771 771 772 772 771 771 771 770 770 769 769 769 768 768 767 766 765 764 764 763 763 762 761 761 760 759 758 757 756 756 755 754 754 753
768 768 768 768 769 770 770 770 771 771 771 771 771 771 771 771 771 771 771 771 771 771 771 770 771 771 771 771 771 772 772 772 772 772 772 772 772 772 772 771 771 770 770 769 769 768 768 768 767 766 766 765 764 763 763 762 761 761 760 759 758 757 757 756 755 754 753 753 752
770 770 770 770 771 771 771 772 772 772 772 772 772 772 772 772 772 772 771 771 771 771 771 771 771 771 772 772 772 772 772 772 772 772 772 772 772 772 772 771 771 770 769 769 768 768 768 767 766 766 765 765 764 763 762 762 761 760 759 758 757 757 756 755 754 753 753 752 751
771 771 772 772 772 772 772 773 773 773 773 773 773 773 772 772 772 772 772 771 771 772 772 772 772 772 773 773 773 772 772 773 773 773 773 773 772 772 771 771 770 769 768 768 768 767 767 766 766 765 765 764 763 763 762 761 760 759 758 758 757 756 755 754 754 753 752 752 751
773 773 773 773 773 773 773 774 774 774 774 773 773 773 773 772 772 772 772 772 773 773 773 773 773 773 773 773 773 773 773 773 773 773 773 773 772 772 771 770 769 768 768 767 767 767 766 766 765 765 764 764 763 762 761 760 760 759 758 757 757 756 755 754 753 753 752 751 751
774 774 774 774 774 774 775 775 775 774 774 774 773 773 773 773 773 773 773 773 774 774 774 773 773 773 773 773 773 774 774 774 774 774 773 773 772 771 770 770 769 768 767 767 766 766 765 765 764 764 763 763 762 761 761 760 759 759 758 757 757 756 755 754 753 753 752 751 750
776 776 775 775 776 776 776 776 776 775 775 775 774 774 774 774 774 775 775 775 775 774 774 774 774 774 774 774 774 775 775 774 774 774 773 772 772 771 770 769 768 767 767 766 766 765 765 764 764 763 763 763 762 761 760 760 759 759 758 757 756 755 755 754 753 752 751 751 750
777 776 776 776 777 777 777 777 776 776 776 776 775 775 775 775 775 775 775 775 775 775 775 774 774 775 775 775 775 775 775 774 774 773 773 772 771 770 769 768 768 767 766 766 765 765 764 764 763 763 763 762 761 761 760 760 759 758 758 757 756 755 754 753 753 752 751 750 749
777 777 777 777 777 777 777 777 777 777 776 776 776 776 776 776 776 776 776 775 775 775 775 775 775 775 776 776 775 775 774 774 773 773 772 771 770 769 768 768 767 766 766 765 765 764 764 764 763 763 762 762 761 760 760 760 759 758 757 756 755 754 753 753 752 751 750 749 749
778 778 778 778 778 778 778 778 778 777 777 777 777 777 777 777 776 776 776 776 775 775 775 775 776 776 776 775 775 775 774 773 772 772 771 770 769 768 768 767 767 766 765 765 765 764 764 763 763 763 762 761 761 760 760 760 759 758 758 757 756 754 754 753 752 751 750 749 748
779 779 779 779 779 779 779 778 778 778 778 778 778 778 777 777 777 777 776 776 776 776 776 776 776 776 775 775 775 774 773 773 772 771 770 770 769 768 768 767 767 766 766 765 765 764 764 764 763 763 762 761 761 760 760 760 759 758 758 757 756 755 754 753 752 751 750 749 748
781 781 780 780 780 780 779 779 779 778 778 778 778 778 778 778 778 777 777 777 777 776 776 776 776 776 775 775 775 774 773 773 772 771 770 770 769 768 768 768 767 766 766 765 765 765 764 764 763 763 762 761 760 760 760 760 759 758 758 757 756 755 754 753 752 751 750 749 748
782 782 781 781 781 781 780 780 780 780 780 780 779 779 779 778 778 778 778 778 778 777 777 777 776 776 776 775 774 774 773 773 772 771 771 770 769 769 768 768 768 767 766 766 766 765 764 764 763 763 762 761 760 760 759 759 759 758 757 756 755 754 754 753 752 751 750 749 748
783 783 782 782 782 782 781 781 781 781 781 780 780 780 779 779 779 779 778 778 778 778 777 777 777 776 776 775 774 774 773 773 772 772 771 771 770 770 769 768 768 768 767 766 766 765 765 764 763 763 762 761 760 759 759 758 758 758 757 756 755 754 753 752 751 750 749 748 747
784 784 783 783 783 782 782 782 782 782 781 781 781 780 780 780 780 779 779 779 778 778 778 778 777 777 776 775 775 774 774 773 773 772 772 771 771 770 769 769 768 768 767 767 766 765 765 764 763 763 762 761 760 759 758 758 758 757 756 755 754 753 753 751 750 749 748 748 747